User: anonymous   Login
Location: Fort Wayne
(41.1310°N, 85.1290°W)
Time: 01:25:41
(UTC-04:00)
Language:

Helios 1B - Orbit

View from above orbital plane
View from above orbital plane
View from above satellite
View from above satellite

Ground track
Ground track

The orbit data is extracted from the following two-line orbital elements,

1 25977U 99064A   15125.72982972  .00001001  00000-0  13499-3 0  9999
2 25977 098.1407 213.4731 0000262 152.6932 207.4294 14.81399889829456
Epoch (UTC): 05 May 2015 17:30:57
Eccentricity: 0.0000262
inclination: 98.1407°
perigee height: 625 km
apogee height: 625 km
right ascension of ascending node: 213.4731°
argument of perigee: 152.6932°
revolutions per day: 14.81399889
mean anomaly at epoch: 207.4294°
orbit number at epoch: 82945

The dashed part of the orbit path shows where the satellite is in the earth's shadow,  

DLR